STARLINK-1453, 45670

Orbit data source: Space-Track

STARLINK-1453, 45670 is a payload satellite owned by SpaceX/Seattle (US) in LEO that was launched on Thu, 04 Jun 2020 UTC via an FALCON 9 launch vehicle from the Air Force Eastern Test Range (AFETR). Payload-class satellites include a variety of spacecraft equipped with specific instruments for various scientific and technological missions. These include communications satellites like Starlink; space stations such as the ISS; scientific satellites like the Hubble; Earth observation satellites from companies like Planet Labs, Umbra, and HawkEye 360; GPS; miniature CubeSats for education and research; and military/defense satellites.

Loading next visibility...
Identifier
45670, 2020-035P
Orbit
LEO
Country
Flag of USUS
Related business
Manufacturer
SpaceX/Seattle
Mission
Operational Commercial Communications
Bus & Motor
STARLINK, Unknown motor
Mass
260 kg wet, ~248 kg dry
Launch date (UTC)
2020-06-04 (5 years ago)
Launch vehicle
FALCON 9
Launch site
Air Force Eastern Test Range (AFETR)
Object type
Payload
Rocket body
Debris
Shape & HBR
Box + 1 Pan, 4.4 m
Radar Cross Section
13.562 m², Large (>1 m²)

Expand to show TLE details & history
Last TLE update: 1 day ago

TLE from 1 day ago
0 STARLINK-1453
1 45670U 20035P   25259.81248344  .00000525  00000-0  54102-4 0  9997
2 45670  53.0536  97.1871 0001288  59.0889 301.0226 15.06399907292834
Epoch: 2025-09-16T19:29Z
TLE epoch observation values (Epoch: 2025-09-16T19:29:58.569Z)
Latitude
-0.00005°
Longitude
168.69561°
Altitude
547.631 km
Speed
7.59 km/s
True Right ascension
06h 28m 44s
True Declination
0° 00' 00"
Sunlit
Object was in daylight at epoch
Visualization orbit readout
Latitude
Unknown
Longitude
Unknown
Altitude
Unknown
Speed
Unknown
Apparent Right ascension
Unknown
Apparent Declination
Unknown
Sunlit
N/A
Visualization observer readout
Local Sidereal Time
16:07:19
Azimuth
Unknown
Elevation
Unknown
Doppler factor
Unknown
Orbital elements
Apogee altitude
548.375 km
Perigee altitude
546.591 km
Semi-major axis
6,925.62 km
Eccentricity
0.00013
Inclination
53.0536°
RAAN
97.1871°
Arg. of periapsis
59.0889°
True anomaly
301.00995°
Mean anomaly
301.0226°
Eccentric anomaly
301.01628°
Mean motion
3.76578 °/min
Orbital period
95.6 mins
BSTAR
0.000054102
Loading maneuver chart data...
Computing Atmospheric mass density...

Documentation

Showing up to 5 results
|